TimeMST,TemperatureF,Dew PointF,Humidity,Sea Level PressureIn,VisibilityMPH,Wind Direction,Wind SpeedMPH,Gust SpeedMPH,PrecipitationIn,Events,Conditions,WindDirDegrees,DateUTC
12:15 AM,28.4,28.4,100,30.13,1.5,South,13.8,-,N/A,,Overcast,180,2013-02-01 07:15:00
12:35 AM,28.4,28.4,100,30.12,1.8,South,13.8,-,N/A,,Overcast,180,2013-02-01 07:35:00
12:55 AM,28.4,26.6,93,30.12,2.5,South,13.8,18.4,N/A,,Overcast,170,2013-02-01 07:55:00
1:15 AM,28.4,26.6,93,30.11,3.0,South,13.8,-,N/A,,Overcast,180,2013-02-01 08:15:00
1:35 AM,30.2,28.4,93,30.11,5.0,South,13.8,-,N/A,,Overcast,190,2013-02-01 08:35:00
1:55 AM,30.2,28.4,93,30.11,4.0,South,16.1,-,N/A,,Overcast,190,2013-02-01 08:55:00
2:15 AM,30.2,28.4,93,30.11,2.0,South,16.1,-,N/A,,Overcast,190,2013-02-01 09:15:00
2:35 AM,30.2,28.4,93,30.11,2.0,South,12.7,-,N/A,,Overcast,180,2013-02-01 09:35:00
2:55 AM,30.2,28.4,93,30.10,2.5,South,12.7,-,N/A,,Overcast,190,2013-02-01 09:55:00
3:55 AM,30.2,28.4,93,30.09,10.0,South,19.6,25.3,N/A,,Overcast,180,2013-02-01 10:55:00
4:35 AM,30.2,28.4,93,30.09,10.0,South,12.7,-,N/A,,Overcast,190,2013-02-01 11:35:00
4:55 AM,30.2,26.6,86,30.09,10.0,South,15.0,-,N/A,,Overcast,180,2013-02-01 11:55:00
5:15 AM,30.2,24.8,80,30.09,10.0,SSW,11.5,17.3,N/A,,Overcast,210,2013-02-01 12:15:00
5:55 AM,32.0,24.8,75,30.09,10.0,Calm,Calm,-,N/A,,Overcast,0,2013-02-01 12:55:00
6:16 AM,30.2,24.8,80,30.08,9.0,WSW,11.5,19.6,N/A,,Overcast,240,2013-02-01 13:16:00
6:55 AM,32.0,24.8,75,30.06,6.0,WSW,20.7,28.8,N/A,Snow,Light Snow,240,2013-02-01 13:55:00
7:53 AM,30.2,26.6,86,30.08,3.0,SW,17.3,25.3,N/A,Snow,Light Snow,230,2013-02-01 14:53:00
9:33 AM,30.2,26.6,86,30.11,5.0,SW,8.1,-,N/A,Snow,Light Snow,230,2013-02-01 16:33:00
9:55 AM,30.2,26.6,86,30.12,2.0,WSW,9.2,-,N/A,Snow,Light Snow,240,2013-02-01 16:55:00
10:16 AM,30.2,26.6,86,30.13,2.0,WSW,10.4,-,N/A,Snow,Light Snow,250,2013-02-01 17:16:00
10:35 AM,32.0,26.6,80,30.14,6.0,SSW,4.6,-,N/A,Snow,Light Snow,210,2013-02-01 17:35:00
10:55 AM,33.8,23.0,65,30.14,8.0,Calm,Calm,-,N/A,,Mostly Cloudy,0,2013-02-01 17:55:00
12:54 PM,32.0,24.8,75,30.17,2.0,Calm,Calm,-,N/A,Snow,Light Snow,0,2013-02-01 19:54:00
1:04 PM,30.2,26.6,86,30.18,4.0,SSE,6.9,-,N/A,Snow,Light Snow,150,2013-02-01 20:04:00
1:52 PM,33.8,19.4,56,30.18,10.0,SSE,4.6,-,N/A,,Overcast,150,2013-02-01 20:52:00
2:51 PM,33.8,17.6,52,30.20,10.0,SW,6.9,-,N/A,,Mostly Cloudy,220,2013-02-01 21:51:00
3:55 PM,33.8,17.6,52,30.21,10.0,WNW,5.8,-,N/A,,Mostly Cloudy,290,2013-02-01 22:55:00
4:55 PM,32.0,23.0,69,30.21,10.0,South,15.0,18.4,N/A,,Mostly Cloudy,170,2013-02-01 23:55:00
5:52 PM,30.2,21.2,69,30.23,10.0,South,10.4,-,N/A,,Mostly Cloudy,190,2013-02-02 00:52:00
6:56 PM,30.2,21.2,69,30.25,10.0,SSW,8.1,-,N/A,,Mostly Cloudy,200,2013-02-02 01:56:00
7:58 PM,28.4,21.2,74,30.26,10.0,South,15.0,24.2,N/A,,Mostly Cloudy,190,2013-02-02 02:58:00
8:51 PM,28.4,21.2,74,30.27,10.0,SSE,13.8,20.7,N/A,,Partly Cloudy,160,2013-02-02 03:51:00
8:55 PM,28.4,21.2,74,30.27,10.0,SSW,8.1,20.7,N/A,,Partly Cloudy,200,2013-02-02 03:55:00
9:15 PM,26.6,21.2,80,30.28,10.0,South,12.7,18.4,N/A,,Clear,170,2013-02-02 04:15:00
9:35 PM,26.6,21.2,80,30.29,10.0,South,15.0,18.4,N/A,,Clear,170,2013-02-02 04:35:00
9:55 PM,26.6,21.2,80,30.30,10.0,South,9.2,-,N/A,,Clear,170,2013-02-02 04:55:00
10:15 PM,26.6,21.2,80,30.30,10.0,South,12.7,-,N/A,,Partly Cloudy,170,2013-02-02 05:15:00
10:35 PM,26.6,21.2,80,30.32,10.0,South,9.2,-,N/A,,Scattered Clouds,180,2013-02-02 05:35:00
10:55 PM,26.6,21.2,80,30.32,10.0,South,12.7,-,N/A,,Scattered Clouds,180,2013-02-02 05:55:00
11:15 PM,26.6,21.2,80,30.32,10.0,South,8.1,-,N/A,,Scattered Clouds,190,2013-02-02 06:15:00
11:36 PM,26.6,19.4,74,30.33,10.0,WNW,3.5,-,N/A,,Mostly Cloudy,300,2013-02-02 06:36:00
11:55 PM,17.6,14.0,86,30.33,10.0,North,10.4,-,N/A,,Partly Cloudy,10,2013-02-02 06:55:00